Regional Weather Roundup
Issued by NWS Upton, NY

Current Version | Previous Version | Text Only | Print | Product List | Glossary On
Versions: 1 2 3 4 5 6 7 8 9 10 11 12 13 14 15 16 17 18 19 20 21 22 23 24 25 26 27
000
ASUS41 KOKX 241408
RWROKX

REGIONAL WEATHER ROUNDUP
NATIONAL WEATHER SERVICE NEW YORK NY
900 AM EST FRI FEB 24 2017

NOTE: "FAIR" INDICATES FEW OR NO CLOUDS BELOW 12,000 FEET WITH NO
SIGNIFICANT WEATHER AND/OR OBSTRUCTIONS TO VISIBILITY.

NYZ071-072-176-178-NJZ106-104-241500-
NEW YORK CITY METRO AREA

CITY           SKY/WX    TMP DP  RH WIND       PRES   REMARKS
Central Park   SUNNY     61  52  72 SW12G21   29.97R
Wall St Helipt NOT AVBL
LaGuardia APRT PTSUNNY   60  50  69 S6        29.95R
Kennedy INTL   MOSUNNY   53  50  89 CALM      29.97R
Breezy Point     N/A     52 N/A N/A S5          N/A
Newark/Liberty PTSUNNY   61  53  75 SW9       29.95R
Teterboro      SUNNY     60  53  77 S6        29.95R
$$

NYZ177-179-078>081-241500-
LONG ISLAND NEW YORK

CITY           SKY/WX    TMP DP  RH WIND       PRES   REMARKS
Jones Beach      N/A     48 N/A N/A S10         N/A
Matinecock PT  NOT AVBL
Farmingdale    SUNNY     56  51  84 SW7       29.97R
MacArthur/ISP  MOSUNNY   57  52  83 SW12      29.97R
Shirley        SUNNY     56  51  84 SW10      29.98S
Westhampton    SUNNY     56  49  77 SW9G16    30.00R
Southampton    NOT AVBL
Bridgehampton  NOT AVBL
East Hampton     N/A     55  49  79 SW7       29.98S
Montauk          N/A     52  49  89 S7        29.99S
$$

NYZ052-065-067-241500-
HUDSON VALLEY

CITY           SKY/WX    TMP DP  RH WIND       PRES   REMARKS
White Plains   MOSUNNY   53  49  86 CALM      29.95R
Newburgh       PTSUNNY   57  54  88 CALM      29.93R
Montgomery     CLOUDY    53  51  93 CALM      29.91R
Poughkeepsie   CLOUDY    57  51  80 S7        29.91S
Albany         CLOUDY    48  44  86 CALM      29.90S
$$

NJZ001-105-106-008-010-013-015-019>022-104-241500-
NEW JERSEY

CITY           SKY/WX    TMP DP  RH WIND       PRES   REMARKS
Newark/Liberty PTSUNNY   61  53  75 SW9       29.95R
Teterboro      SUNNY     60  53  77 S6        29.95R
Caldwell       SUNNY     59  52  77 VRB6      29.95R
Somerville     SUNNY     58  51  78 CALM      29.94R
Linden           N/A     60  52  76 SW3       29.95R
Sussex         MOSUNNY   59  53  80 SW6       29.93R
Andover          N/A     60  52  74 S3        29.93R
Trenton        SUNNY     60  54  80 SW9       29.94S
Millville      SUNNY     61  55  81 SW7       29.97R
Atlantic City  SUNNY     62  52  69 S9G24     29.97R
Wrightstown    SUNNY     62  55  75 SW10G21   29.93R
Toms River     SUNNY     64  54  69 SW10      29.97R
Belmar         SUNNY     62  53  72 S12       29.97R
$$

PAZ047>061-062-071-241500-
EASTERN PENNSYLVANIA

CITY           SKY/WX    TMP DP  RH WIND       PRES   REMARKS
Philadelphia   MOSUNNY   60  53  77 SW7       29.95S
Allentown      SUNNY     60  52  74 S6        29.93R
Scranton       CLOUDY    61  53  75 S7        29.89R
$$

CTZ002-004>006-009-010-012-RIZ004-006-007-MAZ004-011-015-241500-
SOUTHERN NEW ENGLAND
 IN CT

CITY           SKY/WX    TMP DP  RH WIND       PRES   REMARKS
Bradley INTL   CLOUDY    54  49  83 S8        29.94R
Hartford       SUNNY     57  51  80 VRB7      29.95R
Danbury        SUNNY     57  51  80 SW10      29.96R
Wtrbury/Oxford PTSUNNY   55  48  76 SW5       29.97R
Bridgeport     SUNNY     52  48  86 CALM      29.96S
Meriden        CLOUDY    53  47  79 S6        29.96S
New Haven      CLOUDY    52  48  86 S6        29.96S
Chester          N/A     54  50  87 VRB6      29.97R
Groton         CLOUDY    50  47  89 VRB3      29.98R
Wilimantic     SUNNY     52  47  83 CALM      29.97R

 IN RI

CITY           SKY/WX    TMP DP  RH WIND       PRES   REMARKS
Providence     PTSUNNY   56  49  77 S7        29.96S
Block Island   SUNNY     53  50  89 SW13      29.99S
Westerly       CLOUDY    54  48  80 SW8       29.99R
 IN MA

CITY           SKY/WX    TMP DP  RH WIND       PRES   REMARKS
Boston         PTSUNNY   56  50  80 S10       29.95R
Worcester      CLOUDY    56  49  77 SW13      29.93S
Westfield      CLOUDY    44  43  96 CALM      29.94R FOG
Provincetown   CLOUDY    49  47  93 SW8       29.97S
Nantucket      SUNNY     49  46  90 SW10      30.01R
$$

ANZ330-335-338-340-345-350-353-355-241500-
COASTAL MARINE OBSERVATIONS


STATION/POSITION TIME  SKY/WX   TEMP    WIND        PRES    VSBY  WAVE
                                AIR SEA DIR/SP/G                  HT/PER
                 (UTC)          (F)     (DEG/KT/KT) (MB)    (MI)  (FT/S)
NY HARB ENTRANCE 1250            46 43  200/  8/ 10 1014.1          3/12
20 S FIRE ISLAND 1350            47 43  200/  8/  8 1015.0          3/11
GREAT SOUTH BAY  NOT AVBL
23 SSW MONTAUK P 1350            50 43              1015.8          4/11
15 E BARNEGAT LI 1330               43                N/A           4/12
HUDSON CANYON    1250               47              1015.8          4/11
KINGS POINT      1342            54 39              1014.2
EXECUTION ROCKS  NOT AVBL
CENTRAL LI SOUND 1315            46     160/  2/  4   N/A           0
EASTERN LI SOUND NOT AVBL
ROBBINS REEF     1342            54     140/  2/  3 1014.4
$$


>>>>>>>>>>>>>>>>>>>>>>>>>>>> KEY <<<<<<<<<<<<<<<<<<<<<<<<<<<
>                                                          <
>     SKY/WX - Sky Condition/Present Weather               <
>     TMP    - Temperature in Fahrenheit                   <
>     DP     - Dew Point in Fahrenheit                     <
>     RH     - Relative Humidity in Percent                <
>     WIND   - Direction (from) and Speed in MPH           <
>     PRES   - Mean Sea Level Pressure (inches of Hg)      <
>     WCI    - Wind Chill Index                            <
>     VSB    - VISIBILITY IN MILES                         <
>     HX     - HEAT INDEX                                  <
>     TC     - TEMPERATURE IN CELSIUS                      <
>     VRB    - VARIABLE WIND DIRECTION                     <
>                                                          <
>>>>>>>>>>>>>>>>>>>>>>>>>>>> KEY <<<<<<<<<<<<<<<<<<<<<<<<<<<




USA.gov is the U.S. government's official web portal to all federal, state and local government web resources and services.